Location: Balaclava NSW 2575, Australia
(34.4510°S, 150.4953°E)
Time: 20:48:58
(UTC+10:00)

Hubble Space Telescope - Pass Details

Date: 20 May 2021
Orbit: 535 x 539 km, 28.5° (Epoch: 19 June)

Event Time Altitude Azimuth Distance (km) Brightness Sun altitude
Rises 19:12:00 0° 281° (WNW) 2,690 5.6 -26.8°
Reaches altitude 10° 19:14:24 10° 290° (WNW) 1,798 4.4 -27.3°
Enters shadow 19:17:06 30° 323° (NW) 995 2.4 -27.8°
